DELTA 1 R/B(2) *, 2971

Orbit data source: Space-Track

DELTA 1 R/B(2) *, 2971 is space debris in HEO originally from a launch on Thu, 28 Sep 1967 UTC launched from the Air Force Eastern Test Range (AFETR). Debris objects in space refer to the collection of defunct objects orbiting the Earth. Examples of debris include non-operational satellites, rocket bodies, and fragments generated from explosions, collisions, or faulty payload assembly.

Loading next visibility...
Identifier
2971, 1967-094C
Orbit
HEO
Country
Flag of USUS
Related business
Manufacturer
UTC
Mission
Spacecraft
Bus & Motor
FW4, Unknown motor
Mass
~40 kg wet, ~40 kg dry
Launch date (UTC)
1967-09-28 (59 years ago)
Launch vehicle
Unknown
Launch site
Air Force Eastern Test Range (AFETR)
Object type
Payload
Rocket body
Debris
Shape & HBR
Unknown
Radar Cross Section
Large (>1 m²)

Expand to show TLE details & history
Last TLE update: 12 hours ago

TLE from 12 hours ago
0 DELTA 1 R/B(2) *
1 02971U 67094C   26127.15175173  .00003742  00000-0  13335-2 0  9996
2 02971  28.0310 201.6186 6551612  79.3724 343.3704  3.22522724558503
Epoch: 2026-05-07T03:38Z
TLE epoch observation values (Epoch: 2026-05-07T03:38:31.349Z)
Latitude
0.00004°
Longitude
-77.95629°
Altitude
3,463.656 km
Speed
7.772 km/s
True Right ascension
13h 26m 42s
True Declination
0° 00' 00"
Sunlit
Object was in full shadow at epoch
Visualization orbit readout
Latitude
Unknown
Longitude
Unknown
Altitude
Unknown
Speed
Unknown
Apparent Right ascension
Unknown
Apparent Declination
Unknown
Sunlit
N/A
Visualization observer readout
Local Sidereal Time
00:07:09
Azimuth
Unknown
Elevation
Unknown
Doppler factor
Unknown
Orbital elements
Apogee altitude
25,656.127 km
Perigee altitude
295.93 km
Semi-major axis
19,354.165 km
Eccentricity
0.65516
Inclination
28.031°
RAAN
201.6186°
Arg. of periapsis
79.3724°
True anomaly
280.60332°
Mean anomaly
343.3704°
Eccentric anomaly
318.49409°
Mean motion
0.80609 °/min
Orbital period
446.6 mins
BSTAR
0.0013335
Loading maneuver chart data...
Computing Atmospheric mass density...
Loading historical data...
Loading historical data...
Loading historical data...
Loading historical data...
Loading historical data...
Loading historical data...
Loading historical data...
Other satellites on launch #94 in the year 1967 (1967-09-28 UTC)

Documentation

Showing up to 5 results
|